STARLINK-30085, 56709

Orbit data source: Space-Track

STARLINK-30085, 56709 is a payload satellite owned by SpaceX/Seattle (US) in LEO that was launched on Fri, 19 May 2023 UTC via an FALCON 9 launch vehicle from the Air Force Eastern Test Range (AFETR). Payload-class satellites include a variety of spacecraft equipped with specific instruments for various scientific and technological missions. These include communications satellites like Starlink; space stations such as the ISS; scientific satellites like the Hubble; Earth observation satellites from companies like Planet Labs, Umbra, and HawkEye 360; GPS; miniature CubeSats for education and research; and military/defense satellites.

Loading next visibility...
Identifier
56709, 2023-067X
Orbit
LEO
Country
Flag of USUS
Related business
Manufacturer
SpaceX/Seattle
Mission
Operational Commercial Communications
Bus & Motor
STARLINK V2M, Unknown motor
Mass
730 kg wet, ~700 kg dry
Launch date (UTC)
2023-05-19 (3 years ago)
Launch vehicle
FALCON 9
Launch site
Air Force Eastern Test Range (AFETR)
Object type
Payload
Rocket body
Debris
Shape & HBR
Box + 2 Pan, 17.7 m
Radar Cross Section
33.884 m², Large (>1 m²)

Expand to show TLE details & history
Last TLE update: 2 days ago

TLE from 2 days ago
0 STARLINK-30085
1 56709U 23067X   26171.34795838 -.00002440  00000-0 -79160-4 0  9998
2 56709  43.0004  51.0139 0000684 333.7206  26.3611 15.27587915171144
Epoch: 2026-06-20T08:21Z
TLE epoch observation values (Epoch: 2026-06-20T08:21:03.604Z)
Latitude
0.00001°
Longitude
17.18502°
Altitude
482.38 km
Speed
7.626 km/s
True Right ascension
03h 24m 03s
True Declination
0° 00' 00"
Sunlit
Object was in daylight at epoch
Visualization orbit readout
Latitude
Unknown
Longitude
Unknown
Altitude
Unknown
Speed
Unknown
Apparent Right ascension
Unknown
Apparent Declination
Unknown
Sunlit
N/A
Visualization observer readout
Local Sidereal Time
21:26:27
Azimuth
Unknown
Elevation
Unknown
Doppler factor
Unknown
Orbital elements
Apogee altitude
485.44 km
Perigee altitude
484.501 km
Semi-major axis
6,863.108 km
Eccentricity
0.00007
Inclination
43.0004°
RAAN
51.0139°
Arg. of periapsis
333.7206°
True anomaly
26.36458°
Mean anomaly
26.3611°
Eccentric anomaly
26.36284°
Mean motion
3.81735 °/min
Orbital period
94.31 mins
BSTAR
-0.00007916
Loading maneuver chart data...
Computing Atmospheric mass density...
Loading historical data...
Loading historical data...
Loading historical data...
Loading historical data...
Loading historical data...
Loading historical data...
Loading historical data...

Documentation

Showing up to 5 results
|